Weather History for Andover, NJ

Change the Weather History Date:

Saturday, March 29, 2014

  Actual Average (KFWN) Record (KFWN)
Temperature  
Mean Temperature 40 °F -  
Max Temperature 46 °F 53 °F 80 °F (1989)
Min Temperature 35 °F 30 °F 12 °F (1959)
Degree Days  
Heating Degree Days 24    
Moisture  
Dew Point 40 °F    
Average Humidity 93    
Maximum Humidity 100    
Minimum Humidity 76    
Precipitation  
Precipitation 1.14 in - - ()
Sea Level Pressure  
Sea Level Pressure 30.05 in    
Wind  
Wind Speed 2 mph (NNE)    
Max Wind Speed 7 mph    
Max Gust Speed -    
Averages and records for this station are not official NWS values.
T = Trace of Precipitation, MM = Missing Value Source: NWS Daily Summary

Daily Weather History Graph

Daily Weather History Graph

Search for Another Location

Airport:

Trip Planner

Search our weather history database for the weather conditions in past years. The results will help you decide how hot, cold, wet, or windy it might be!

Date:

Astronomy

Mar. 29, 2014 Rise Set
Actual Time 6:47 AM EDT 7:20 PM EDT
Civil Twilight 6:19 AM EDT 7:48 PM EDT
Nautical Twilight 5:47 AM EDT 8:21 PM EDT
Astronomical Twilight 5:13 AM EDT 8:54 PM EDT
Moon 5:55 AM EDT (3/29) 6:22 PM EDT (3/29)
Length of Visible Light 13h 28m
Length of Day
12h 33m
Waning Crescent, 2% of the Moon is Illuminated
Mar 29
Waning Crescent
Mar 30
New
Apr 7
First Quarter
Apr 15
Full
Apr 22
Last Quarter

Hourly Weather History & Observations

Time (EDT) Temp. Windchill Dew Point Humidity Pressure Visibility Wind Dir Wind Speed Gust Speed Precip Events Conditions
12:54 AM 37.9 °F - 37.9 °F 100% 30.14 in - Calm Calm - N/A   Unknown
1:54 AM 37.9 °F - 37.9 °F 100% 30.15 in - Calm Calm - N/A   Unknown
2:54 AM 36.0 °F 33.3 °F 36.0 °F 100% 30.14 in - North 3.5 mph - N/A   Unknown
3:54 AM 39.9 °F - 39.0 °F 97% 30.14 in - Calm Calm - N/A   Unknown
4:54 AM 35.1 °F - 35.1 °F 100% 30.14 in - Calm Calm - N/A   Unknown
5:54 AM 35.1 °F - 35.1 °F 100% 30.16 in - Calm Calm - N/A   Unknown
6:54 AM 36.0 °F - 36.0 °F 100% 30.18 in - Calm Calm - N/A   Unknown
7:54 AM 37.0 °F - 36.0 °F 96% 30.20 in - Calm Calm - N/A   Unknown
8:54 AM 43.0 °F - 37.9 °F 82% 30.20 in - Calm Calm - N/A   Unknown
9:54 AM 44.1 °F 42.5 °F 39.0 °F 82% 30.19 in - Variable 3.5 mph - N/A   Unknown
10:54 AM 44.1 °F 42.5 °F 37.9 °F 79% 30.17 in - Variable 3.5 mph - N/A   Unknown
11:54 AM 45.0 °F 42.6 °F 37.9 °F 76% 30.15 in - Variable 4.6 mph - N/A   Unknown
12:54 PM 45.0 °F 43.5 °F 39.9 °F 82% 30.12 in - Variable 3.5 mph - 0.03 in   Unknown
1:54 PM 45.0 °F 42.6 °F 42.1 °F 90% 30.12 in - Variable 4.6 mph - 0.02 in   Unknown
2:54 PM 44.1 °F 41.5 °F 43.0 °F 96% 30.07 in - Variable 4.6 mph - 0.06 in   Unknown
3:54 PM 44.1 °F 40.8 °F 43.0 °F 96% 30.03 in - NE 5.8 mph - 0.10 in   Unknown
4:54 PM 44.1 °F 41.5 °F 43.0 °F 96% 29.97 in - North 4.6 mph - 0.12 in   Unknown
5:54 PM 42.1 °F 39.2 °F 42.1 °F 100% 29.95 in - Variable 4.6 mph - 0.12 in   Unknown
6:54 PM 44.1 °F 40.8 °F 43.0 °F 96% 29.94 in - Variable 5.8 mph - 0.08 in   Unknown
7:54 PM 45.0 °F 42.6 °F 43.0 °F 93% 29.90 in - North 4.6 mph - 0.05 in   Unknown
8:54 PM 45.0 °F 42.6 °F 44.1 °F 97% 29.86 in - Variable 4.6 mph - 0.11 in   Unknown
9:54 PM 45.0 °F 41.2 °F 44.1 °F 97% 29.81 in - Variable 6.9 mph - 0.16 in   Unknown
10:54 PM 46.0 °F 42.5 °F 44.1 °F 93% 29.74 in - Variable 6.9 mph - 0.14 in   Unknown
11:54 PM 45.0 °F 42.6 °F 43.0 °F 93% 29.69 in - Variable 4.6 mph - 0.15 in   Unknown